Watson, IL

7:54 PM CST on February 24, 2017 (GMT -0600)
Effingham

Weather History for K1H2 - October, 2012

Change the Weather History Date:

Monday, October 15, 2012

  Actual Average (KMTO) Record (KMTO)
Temperature  
Mean Temperature 54 °F -  
Max Temperature 65 °F 68 °F 87 °F (1963)
Min Temperature 42 °F 46 °F 28 °F (2006)
Degree Days  
Heating Degree Days 12    
Growing Degree Days 4 (Base 50)    
Moisture  
Dew Point 43 °F    
Average Humidity 72    
Maximum Humidity 100    
Minimum Humidity 39    
Precipitation  
Precipitation 0.00 in - - ()
Sea Level Pressure  
Sea Level Pressure 29.96 in    
Wind  
Wind Speed 6 mph (WNW)    
Max Wind Speed 13 mph    
Max Gust Speed 18 mph    
Visibility 9 miles    
Events      
Averages and records for this station are not official NWS values.
T = Trace of Precipitation, MM = Missing Value Source: NWS Daily Summary

Daily Weather History Graph

Daily Weather History Graph

Search for Another Location

Airport or City:

Trip Planner

Search our weather history database for the weather conditions in past years. The results will help you decide how hot, cold, wet, or windy it might be!

Date:

Astronomy

Oct. 15, 2012 Rise Set
Actual Time 7:04 AM CDT 6:14 PM CDT
Civil Twilight 6:37 AM CDT 6:41 PM CDT
Nautical Twilight 6:06 AM CDT 7:12 PM CDT
Astronomical Twilight 5:35 AM CDT 7:43 PM CDT
Moon 7:13 AM CDT (10/15) 6:14 PM CDT (10/15)
Length of Visible Light 12h 04m
Length of Day
11h 10m
New Moon, 0% of the Moon is Illuminated
Oct 15
New Moon
Oct 21
First Quarter
Oct 29
Full
Nov 6
Last Quarter
Nov 13
New

Hourly Weather History & Observations

Time (CDT) Temp. Windchill Dew Point Humidity Pressure Visibility Wind Dir Wind Speed Gust Speed Precip Events Conditions
12:15 AM 51.8 °F - 45.0 °F 77% 29.90 in 10.0 mi West 10.4 mph - N/A   Clear
12:35 AM 51.8 °F - 45.0 °F 77% 29.90 in 10.0 mi West 9.2 mph - N/A   Clear
12:55 AM 51.8 °F - 45.0 °F 77% 29.90 in 10.0 mi West 9.2 mph - N/A   Clear
1:15 AM 51.3 °F - 45.3 °F 80% 29.90 in 10.0 mi West 9.2 mph - N/A   Clear
1:35 AM 51.6 °F - 45.5 °F 80% 29.91 in 10.0 mi West 9.2 mph - N/A   Clear
1:55 AM 50.9 °F - 45.5 °F 82% 29.91 in 10.0 mi West 8.1 mph - N/A   Clear
2:15 AM 51.6 °F - 45.7 °F 80% 29.91 in 10.0 mi West 9.2 mph - N/A   Clear
2:35 AM 51.3 °F - 45.5 °F 81% 29.90 in 10.0 mi WNW 5.8 mph - N/A   Clear
2:55 AM 51.3 °F - 45.7 °F 81% 29.90 in 10.0 mi WNW 8.1 mph - N/A   Clear
3:15 AM 50.4 °F - 45.5 °F 83% 29.90 in 10.0 mi WNW 6.9 mph - N/A   Clear
3:35 AM 50.0 °F - 45.1 °F 83% 29.90 in 10.0 mi WNW 6.9 mph - N/A   Clear
3:55 AM 49.3 °F - 45.5 °F 87% 29.90 in 10.0 mi WNW 5.8 mph - N/A   Clear
4:15 AM 47.7 °F - 45.0 °F 90% 29.91 in 10.0 mi WNW 4.6 mph - N/A   Clear
4:35 AM 47.1 °F - 44.6 °F 91% 29.91 in 7.0 mi West 5.8 mph - N/A   Clear
4:55 AM 46.0 °F 43.9 °F 43.9 °F 92% 29.92 in 10.0 mi West 4.6 mph - N/A   Clear
5:15 AM 45.5 °F - 43.7 °F 93% 29.92 in 7.0 mi Calm Calm - N/A   Clear
5:35 AM 45.1 °F - 43.3 °F 93% 29.93 in 10.0 mi Calm Calm - N/A   Clear
5:55 AM 44.8 °F - 43.5 °F 95% 29.93 in 7.0 mi Calm Calm - N/A   Clear
6:15 AM 43.7 °F - 42.4 °F 95% 29.93 in 5.0 mi Calm Calm - N/A   Clear
6:35 AM 43.3 °F 41.7 °F 42.3 °F 96% 29.94 in 5.0 mi WSW 3.5 mph - N/A   Clear
6:55 AM 44.6 °F - 42.8 °F 93% 29.95 in 5.0 mi Calm Calm - N/A   Clear
7:15 AM 42.8 °F - 42.8 °F 100% 29.95 in 4.0 mi Calm Calm - N/A   Clear
7:35 AM 43.7 °F - 42.8 °F 97% 29.96 in 4.0 mi Calm Calm - N/A   Clear
7:55 AM 45.9 °F - 45.0 °F 97% 29.96 in 5.0 mi Calm Calm - N/A   Clear
8:15 AM 48.2 °F - 48.2 °F 100% 29.97 in 10.0 mi West 4.6 mph - N/A   Clear
8:35 AM 50.5 °F - 47.1 °F 88% 29.97 in 10.0 mi West 6.9 mph - N/A   Clear
8:55 AM 52.2 °F - 46.8 °F 82% 29.98 in 10.0 mi WNW 8.1 mph - N/A   Clear
9:15 AM 54.0 °F - 46.8 °F 77% 29.99 in 10.0 mi WNW 5.8 mph - N/A   Clear
9:35 AM 55.4 °F - 46.4 °F 72% 29.99 in 10.0 mi WNW 8.1 mph - N/A   Clear
9:55 AM 56.5 °F - 45.5 °F 67% 29.99 in 10.0 mi WNW 6.9 mph - N/A   Clear
10:15 AM 57.9 °F - 43.3 °F 58% 30.00 in 10.0 mi West 9.2 mph - N/A   Clear
10:35 AM 58.8 °F - 42.4 °F 55% 30.00 in 10.0 mi West 9.2 mph - N/A   Clear
10:55 AM 59.9 °F - 40.3 °F 48% 30.00 in 10.0 mi West 10.4 mph - N/A   Clear
11:15 AM 60.8 °F - 39.2 °F 45% 30.01 in 10.0 mi WNW 9.2 mph - N/A   Clear
11:35 AM 61.0 °F - 37.4 °F 42% 30.01 in 10.0 mi NW 11.5 mph - N/A   Clear
11:55 AM 61.9 °F - 38.1 °F 41% 30.01 in 10.0 mi NW 10.4 mph - N/A   Clear
12:15 PM 62.1 °F - 36.9 °F 39% 30.01 in 10.0 mi NW 6.9 mph 18.4 mph N/A   Clear
12:35 PM 63.0 °F - 37.9 °F 40% 30.01 in 10.0 mi WNW 11.5 mph 17.3 mph N/A   Clear
12:55 PM 62.6 °F - 37.4 °F 39% 30.00 in 10.0 mi NW 12.7 mph 17.3 mph N/A   Clear
1:15 PM 63.7 °F - 38.3 °F 39% 30.00 in 10.0 mi WNW 10.4 mph - N/A   Clear
1:35 PM 63.7 °F - 37.9 °F 39% 29.98 in 10.0 mi NW 11.5 mph 16.1 mph N/A   Clear
1:55 PM 64.6 °F - 40.5 °F 41% 29.98 in 10.0 mi NW 10.4 mph - N/A   Clear
2:15 PM 64.8 °F - 39.0 °F 39% 29.98 in 10.0 mi NNW 11.5 mph - N/A   Clear
2:35 PM 64.8 °F - 39.6 °F 40% 29.98 in 10.0 mi WNW 10.4 mph 17.3 mph N/A   Clear
2:55 PM 65.1 °F - 40.3 °F 40% 29.97 in 10.0 mi WNW 9.2 mph - N/A   Clear
3:15 PM 64.8 °F - 39.6 °F 40% 29.98 in 10.0 mi WNW 4.6 mph - N/A   Clear
3:35 PM 64.2 °F - 39.9 °F 41% 29.98 in 10.0 mi NW 4.6 mph - N/A   Clear
3:55 PM 64.6 °F - 40.1 °F 41% 29.98 in 10.0 mi NNW 5.8 mph - N/A   Scattered Clouds
4:15 PM 64.6 °F - 41.2 °F 42% 29.98 in 10.0 mi WNW 4.6 mph - N/A   Clear
4:35 PM 64.0 °F - 41.7 °F 44% 29.98 in 10.0 mi West 5.8 mph - N/A   Clear
4:55 PM 62.8 °F - 42.4 °F 47% 29.97 in 10.0 mi WNW 3.5 mph - N/A   Clear
5:15 PM 62.2 °F - 43.3 °F 50% 29.97 in 10.0 mi NW 3.5 mph - N/A   Clear
5:35 PM 63.0 °F - 41.5 °F 45% 29.96 in 10.0 mi NW 4.6 mph - N/A   Clear
5:55 PM 60.8 °F - 42.8 °F 52% 29.96 in 10.0 mi NW 4.6 mph - N/A   Clear
6:15 PM 58.6 °F - 42.4 °F 55% 29.96 in 10.0 mi Calm Calm - N/A   Clear
6:35 PM 56.1 °F - 43.9 °F 64% 29.96 in 10.0 mi Calm Calm - N/A   Clear
6:55 PM 52.5 °F - 44.6 °F 74% 29.96 in 10.0 mi Calm Calm - N/A   Clear
7:15 PM 51.1 °F - 44.1 °F 77% 29.96 in 10.0 mi Calm Calm - N/A   Clear
7:35 PM 50.0 °F - 43.7 °F 79% 29.96 in 10.0 mi Calm Calm - N/A   Clear
7:55 PM 48.4 °F - 43.7 °F 84% 29.97 in 10.0 mi Calm Calm - N/A   Clear
8:15 PM 48.2 °F - 43.9 °F 85% 29.97 in 10.0 mi Calm Calm - N/A   Clear
8:35 PM 47.5 °F - 43.3 °F 86% 29.97 in 10.0 mi Calm Calm - N/A   Clear
8:55 PM 46.6 °F - 43.7 °F 90% 29.98 in 10.0 mi Calm Calm - N/A   Clear
9:15 PM 45.9 °F - 43.7 °F 92% 29.98 in 10.0 mi Calm Calm - N/A   Clear
9:35 PM 45.3 °F - 42.8 °F 91% 29.98 in 10.0 mi Calm Calm - N/A   Clear
9:55 PM 45.1 °F - 43.3 °F 93% 29.98 in 10.0 mi Calm Calm - N/A   Clear
10:15 PM 45.3 °F - 43.7 °F 94% 29.98 in 10.0 mi Calm Calm - N/A   Clear
10:35 PM 44.1 °F - 42.8 °F 95% 29.98 in 10.0 mi Calm Calm - N/A   Clear
10:55 PM 43.7 °F - 42.1 °F 94% 29.98 in 10.0 mi Calm Calm - N/A   Clear
11:15 PM 43.2 °F - 41.9 °F 95% 29.98 in 10.0 mi Calm Calm - N/A   Clear
11:35 PM 43.2 °F - 41.9 °F 95% 29.98 in 7.0 mi Calm Calm - N/A   Unknown
11:55 PM 42.8 °F - 41.5 °F 95% 29.98 in 7.0 mi Calm Calm - N/A   Unknown